CZ-6A DEB

Satellite information

Favourite Embed

Satellite Type and Status

DEBRISIN ORBIT

Key statistics

Satellite CZ-6A DEB at a glance.

Uptime

969

Days in orbit

Revolutions

≈ 14.7

Per day

Orbit

SSO

Sun Synchronous Orbit

Inclination

98.7

Latest

Satellite identification and parameters

Extended collection of information and parameters for CZ-6A DEB.

Object identification

Identified? True

Debris? True

Object name: CZ-6A DEB

International designator: 2022-151VM

Object number (NORAD): 55196

Object ID (CCSDS): 55196

Country: PEOPLES REPUBLIC OF CHINA (PRC)

Current information (Y/N): Y

RCS size: SMALL

Orbital parameters

Period: 98.145 minutes

Inclination: 98.6546 deg

SMA: 7048.124 km

Apoapsis: 724.458 km

Periapsis: 615.52 km

RAAN: 235.6139 deg

Eccentricy: 0.0077282

Argument of periapsis: 264.1557 deg

Mean anomaly: 95.0832 deg

Mean motion: 14.67210629 rev/day

Mean motion (dot): 0.00009029 rev/day2

B* drag term: 0.0015418 1/REarth

Two-line elements (TLE)

Creation date: July 6, 2025, 10:36 p.m.

Reference frame: TEME

Reference center: EARTH

Epoch: July 6, 2025, 3:57 p.m. UTC

TLE line 0: 0 CZ-6A DEB

TLE line 1: 1 55196U 22151VM 25187.66467243 .00009029 00000-0 15418-2 0 9999

TLE line 2: 2 55196 98.6546 235.6139 0077282 264.1557 95.0832 14.67210629134767

Live tracking on map

Real-time ground track for satellite CZ-6A DEB.

In-orbit conjunctions

A list of the most updated potential collisions computed for object CZ-6A DEB.

Target Orbit TCA Probability of collision Miss distance Type
ST5-A HEO 2025-05-08 08:45:06 0.0001330627 582.0 (m) PAYLOAD
CZ-6A DEB LEO 2025-02-03 04:53:27 0.0003286179 32.0 (m) DEBRIS
CZ-6A DEB SSO 2024-11-14 17:58:41 0.0003606204 902.0 (m) DEBRIS

Associated space launch

Chinese satellite reported for atmospheric/ocean/environmental/spatial parameter research purposes, details TBD.

CZ-6A DEB was lifted into orbit during the mission ‘Long March 6A | Yunhai 3’, on board a Long March 6A space rocket.

The launch took place on Nov. 11, 2022, 10:52 p.m. from Launch Complex 9A.

For more information about the launch, click the button.

Launch to space Long March 6A | Yunhai 3
Long March 6A | Yunhai 3

Agency: N/A

Status: Launch Successful

Launch date: Nov. 11, 2022, 10:52 p.m. UTC

Rocket: Long March 6A

Launch pad: Launch Complex 9A

Location: Taiyuan Satellite Launch Center, People's Republic of China

...

Latest news about this satellite

There are no fresh news available about this satellite. Check back as we update our databases every day.


Newsletter sign-up

Weekly statistics, charts and insights to help you stay on top of the space industry.